| time (UTC) | temp F | wind direction | speed MPH | gust MPH | rain 1hr in | rain 24hr in | rain mn in | humidity % | barometer mb |
| 20260509205732 | 92 | 273 | 2.0 | 8.0 | 0.00 | 0.00 | 0.00 | 7 | 1012.7 |
| 20260509204730 | 92 | 122 | 5.0 | 16.0 | 0.00 | 0.00 | 0.00 | 7 | 1012.9 |
| 20260509202717 | 92 | 209 | 9.0 | 16.0 | 0.00 | 0.00 | 0.00 | 7 | 1013.4 |
| 20260509201717 | 93 | 205 | 7.0 | 14.0 | 0.00 | 0.00 | 0.00 | 7 | 1013.5 |
| 20260509200728 | 93 | 164 | 8.0 | 15.0 | 0.00 | 0.00 | 0.00 | 8 | 1013.6 |
| 20260509193720 | 91 | 202 | 2.0 | 12.0 | 0.00 | 0.00 | 0.00 | 9 | 1014.0 |
| 20260509191724 | 90 | 239 | 7.0 | 10.0 | 0.00 | 0.00 | 0.00 | 10 | 1014.2 |
| 20260509185726 | 88 | 269 | 3.0 | 6.0 | 0.00 | 0.00 | 0.00 | 11 | 1014.4 |
| 20260509184720 | 88 | 264 | 4.0 | 9.0 | 0.00 | 0.00 | 0.00 | 11 | 1014.6 |
| 20260509183717 | 87 | 248 | 6.0 | 9.0 | 0.00 | 0.00 | 0.00 | 12 | 1014.7 |
| 20260509182726 | 87 | 305 | 4.0 | 8.0 | 0.00 | 0.00 | 0.00 | 12 | 1014.9 |
| 20260509181719 | 87 | 239 | 4.0 | 8.0 | 0.00 | 0.00 | 0.00 | 12 | 1015.1 |
| 20260509180713 | 87 | 251 | 4.0 | 8.0 | 0.00 | 0.00 | 0.00 | 13 | 1015.2 |
| 20260509175724 | 85 | 280 | 3.0 | 9.0 | 0.00 | 0.00 | 0.00 | 14 | 1015.3 |
| 20260509174717 | 85 | 265 | 2.0 | 9.0 | 0.00 | 0.00 | 0.00 | 14 | 1015.4 |
| 20260509172712 | 83 | 247 | 2.0 | 7.0 | 0.00 | 0.00 | 0.00 | 15 | 1015.4 |
| 20260509171721 | 83 | 277 | 0.0 | 8.0 | 0.00 | 0.00 | 0.00 | 14 | 1015.6 |
| 20260509170713 | 83 | 237 | 1.0 | 5.0 | 0.00 | 0.00 | 0.00 | 14 | 1015.6 |
| 20260509165710 | 82 | 259 | 3.0 | 6.0 | 0.00 | 0.00 | 0.00 | 15 | 1015.5 |
| 20260509164724 | 80 | 253 | 2.0 | 6.0 | 0.00 | 0.00 | 0.00 | 15 | 1015.5 |
| 20260509163718 | 79 | 237 | 3.0 | 6.0 | 0.00 | 0.00 | 0.00 | 17 | 1015.7 |
| 20260509162712 | 78 | 212 | 1.0 | 5.0 | 0.00 | 0.00 | 0.00 | 17 | 1015.6 |
| 20260509160725 | 77 | 308 | 3.0 | 6.0 | 0.00 | 0.00 | 0.00 | 19 | 1015.7 |
| 20260509155721 | 76 | 259 | 4.0 | 7.0 | 0.00 | 0.00 | 0.00 | 19 | 1015.7 |
| 20260509153727 | 76 | 205 | 3.0 | 6.0 | 0.00 | 0.00 | 0.00 | 20 | 1015.7 |
| 20260509152715 | 75 | 234 | 3.0 | 5.0 | 0.00 | 0.00 | 0.00 | 20 | 1015.8 |
| 20260509151709 | 75 | 207 | 3.0 | 8.0 | 0.00 | 0.00 | 0.00 | 21 | 1015.8 |
| 20260509150717 | 74 | 160 | 4.0 | 7.0 | 0.00 | 0.00 | 0.00 | 21 | 1015.8 |
| 20260509144719 | 72 | 259 | 3.0 | 6.0 | 0.00 | 0.00 | 0.00 | 24 | 1015.6 |
| 20260509143714 | 71 | 259 | 2.0 | 2.0 | 0.00 | 0.00 | 0.00 | 24 | 1015.7 |
| 20260509142709 | 70 | 269 | 1.0 | 2.0 | 0.00 | 0.00 | 0.00 | 25 | 1015.6 |
| 20260509141724 | 69 | 269 | 0.0 | 1.0 | 0.00 | 0.00 | 0.00 | 25 | 1015.6 |
| 20260509140719 | 68 | 269 | 0.0 | 2.0 | 0.00 | 0.00 | 0.00 | 27 | 1015.6 |
| 20260509135713 | 66 | 212 | 0.0 | 1.0 | 0.00 | 0.00 | 0.00 | 27 | 1015.6 |
| 20260509133707 | 64 | 182 | 0.0 | 1.0 | 0.00 | 0.00 | 0.00 | 29 | 1014.7 |
| 20260509132717 | 62 | 113 | 0.0 | 1.0 | 0.00 | 0.00 | 0.00 | 28 | 1014.8 |
| 20260509130711 | 58 | 94 | 5.0 | 8.0 | 0.00 | 0.00 | 0.00 | 32 | 1014.7 |
| 20260509125707 | 56 | 41 | 1.0 | 5.0 | 0.00 | 0.00 | 0.00 | 33 | 1014.8 |
| 20260509124716 | 55 | 40 | 2.0 | 5.0 | 0.00 | 0.00 | 0.00 | 33 | 1014.7 |
| 20260509123711 | 55 | 5 | 3.0 | 7.0 | 0.00 | 0.00 | 0.00 | 33 | 1014.6 |
| 20260509121721 | 56 | 173 | 2.0 | 4.0 | 0.00 | 0.00 | 0.00 | 33 | 1014.0 |
| 20260509120720 | 57 | 78 | 1.0 | 2.0 | 0.00 | 0.00 | 0.00 | 32 | 1013.5 |
| 20260509115715 | 58 | 84 | 3.0 | 5.0 | 0.00 | 0.00 | 0.00 | 31 | 1013.3 |
| 20260509114710 | 59 | 90 | 1.0 | 2.0 | 0.00 | 0.00 | 0.00 | 29 | 1014.1 |
| 20260509113712 | 59 | 11 | 0.0 | 1.0 | 0.00 | 0.00 | 0.00 | 28 | 1013.9 |
| 20260509112711 | 59 | 11 | 0.0 | 1.0 | 0.00 | 0.00 | 0.00 | 27 | 1013.8 |
| 20260509111710 | 60 | 10 | 0.0 | 1.0 | 0.00 | 0.00 | 0.00 | 27 | 1013.7 |
| 20260509105707 | 61 | 10 | 1.0 | 4.0 | 0.00 | 0.00 | 0.00 | 25 | 1013.7 |
| 20260509104702 | 62 | 360 | 3.0 | 4.0 | 0.00 | 0.00 | 0.00 | 25 | 1013.7 |
| 20260509103714 | 63 | 44 | 0.0 | 2.0 | 0.00 | 0.00 | 0.00 | 24 | 1013.5 |
| 20260509102709 | 64 | 58 | 1.0 | 3.0 | 0.00 | 0.00 | 0.00 | 24 | 1013.5 |
| 20260509101709 | 64 | 88 | 0.0 | 6.0 | 0.00 | 0.00 | 0.00 | 22 | 1013.5 |
| 20260509100715 | 64 | 97 | 2.0 | 4.0 | 0.00 | 0.00 | 0.00 | 22 | 1013.4 |
| 20260509095711 | 64 | 93 | 3.0 | 4.0 | 0.00 | 0.00 | 0.00 | 22 | 1012.4 |
| 20260509094707 | 65 | 102 | 2.0 | 6.0 | 0.00 | 0.00 | 0.00 | 22 | 1012.5 |
| 20260509093707 | 65 | 93 | 3.0 | 4.0 | 0.00 | 0.00 | 0.00 | 21 | 1012.4 |
| 20260509092704 | 65 | 97 | 3.0 | 7.0 | 0.00 | 0.00 | 0.00 | 21 | 1012.4 |
| 20260509091659 | 65 | 101 | 2.0 | 5.0 | 0.00 | 0.00 | 0.00 | 21 | 1012.5 |
| 20260509085716 | 66 | 90 | 4.0 | 7.0 | 0.00 | 0.00 | 0.00 | 21 | 1012.6 |
| 20260509084713 | 66 | 98 | 4.0 | 7.0 | 0.00 | 0.00 | 0.00 | 21 | 1012.7 |
| 20260509082718 | 67 | 96 | 1.0 | 4.0 | 0.00 | 0.00 | 0.00 | 20 | 1012.8 |
| 20260509081708 | 67 | 105 | 2.0 | 3.0 | 0.00 | 0.00 | 0.00 | 20 | 1012.6 |
| 20260509080700 | 68 | 91 | 1.0 | 4.0 | 0.00 | 0.00 | 0.00 | 19 | 1012.7 |
| 20260509075715 | 68 | 86 | 2.0 | 5.0 | 0.00 | 0.00 | 0.00 | 19 | 1012.9 |
| 20260509073711 | 68 | 107 | 2.0 | 4.0 | 0.00 | 0.00 | 0.00 | 19 | 1012.9 |
| 20260509072705 | 68 | 102 | 3.0 | 6.0 | 0.00 | 0.00 | 0.00 | 19 | 1012.9 |
| 20260509070711 | 68 | 105 | 2.0 | 4.0 | 0.00 | 0.00 | 0.00 | 19 | 1013.2 |
| 20260509065702 | 69 | 107 | 1.0 | 3.0 | 0.00 | 0.00 | 0.00 | 19 | 1013.2 |
| 20260509064714 | 69 | 97 | 1.0 | 3.0 | 0.00 | 0.00 | 0.00 | 18 | 1013.3 |
| 20260509062701 | 69 | 87 | 1.0 | 5.0 | 0.00 | 0.00 | 0.00 | 19 | 1013.2 |
| 20260509060712 | 69 | 99 | 2.0 | 7.0 | 0.00 | 0.00 | 0.00 | 19 | 1013.3 |
| 20260509055708 | 68 | 90 | 1.0 | 7.0 | 0.00 | 0.00 | 0.00 | 19 | 1013.4 |
| 20260509054707 | 67 | 97 | 3.0 | 7.0 | 0.00 | 0.00 | 0.00 | 20 | 1013.4 |
| 20260509053713 | 67 | 81 | 4.0 | 5.0 | 0.00 | 0.00 | 0.00 | 20 | 1013.5 |
| 20260509051712 | 68 | 82 | 3.0 | 5.0 | 0.00 | 0.00 | 0.00 | 19 | 1013.7 |
| 20260509050702 | 69 | 76 | 3.0 | 4.0 | 0.00 | 0.00 | 0.00 | 19 | 1013.8 |
| 20260509045659 | 70 | 88 | 4.0 | 4.0 | 0.00 | 0.00 | 0.00 | 18 | 1013.8 |
| 20260509044713 | 69 | 94 | 1.0 | 3.0 | 0.00 | 0.00 | 0.00 | 18 | 1013.8 |
| 20260509043709 | 69 | 105 | 2.0 | 4.0 | 0.00 | 0.00 | 0.00 | 19 | 1013.8 |
| 20260509042703 | 68 | 105 | 0.0 | 3.0 | 0.00 | 0.00 | 0.00 | 20 | 1013.7 |
| 20260509041702 | 68 | 90 | 2.0 | 4.0 | 0.00 | 0.00 | 0.00 | 20 | 1013.5 |
| 20260509040703 | 68 | 146 | 1.0 | 5.0 | 0.00 | 0.00 | 0.00 | 21 | 1013.5 |
| 20260509035701 | 69 | 94 | 2.0 | 3.0 | 0.00 | 0.00 | 0.00 | 21 | 1013.4 |
| 20260509034656 | 69 | 115 | 1.0 | 3.0 | 0.00 | 0.00 | 0.00 | 21 | 1013.1 |
| 20260509033657 | 70 | 71 | 2.0 | 5.0 | 0.00 | 0.00 | 0.00 | 20 | 1012.9 |
| 20260509032708 | 71 | 76 | 3.0 | 5.0 | 0.00 | 0.00 | 0.00 | 19 | 1012.8 |
| 20260509031704 | 72 | 72 | 3.0 | 5.0 | 0.00 | 0.00 | 0.00 | 18 | 1012.7 |
| 20260509030701 | 74 | 63 | 2.0 | 4.0 | 0.00 | 0.00 | 0.00 | 16 | 1012.5 |
| 20260509025657 | 77 | 88 | 1.0 | 2.0 | 0.00 | 0.00 | 0.00 | 14 | 1012.4 |
| 20260509024709 | 79 | 35 | 0.0 | 1.0 | 0.00 | 0.00 | 0.00 | 13 | 1012.2 |
| 20260509023707 | 80 | 34 | 0.0 | 1.0 | 0.00 | 0.00 | 0.00 | 12 | 1012.1 |
| 20260509022701 | 81 | 44 | 0.0 | 0.0 | 0.00 | 0.00 | 0.00 | 12 | 1011.9 |
| 20260509021711 | 82 | 46 | 0.0 | 2.0 | 0.00 | 0.00 | 0.00 | 11 | 1011.8 |
| 20260509020706 | 83 | 30 | 0.0 | 3.0 | 0.00 | 0.00 | 0.00 | 10 | 1011.8 |
| 20260509015702 | 84 | 360 | 2.0 | 4.0 | 0.00 | 0.00 | 0.00 | 9 | 1011.8 |
| 20260509013657 | 85 | 13 | 1.0 | 5.0 | 0.00 | 0.00 | 0.00 | 8 | 1011.6 |
| 20260509012711 | 86 | 355 | 3.0 | 5.0 | 0.00 | 0.00 | 0.00 | 8 | 1011.6 |
| 20260509011704 | 86 | 23 | 5.0 | 10.0 | 0.00 | 0.00 | 0.00 | 7 | 1011.5 |
| 20260509010702 | 87 | 9 | 6.0 | 12.0 | 0.00 | 0.00 | 0.00 | 7 | 1011.6 |
| 20260509005712 | 87 | 5 | 8.0 | 12.0 | 0.00 | 0.00 | 0.00 | 7 | 1011.6 |
| 20260509004704 | 88 | 355 | 8.0 | 10.0 | 0.00 | 0.00 | 0.00 | 7 | 1011.6 |
| 20260509003656 | 88 | 329 | 4.0 | 8.0 | 0.00 | 0.00 | 0.00 | 7 | 1011.6 |
| 20260509002652 | 88 | 12 | 2.0 | 12.0 | 0.00 | 0.00 | 0.00 | 8 | 1011.7 |
| 20260509000657 | 88 | 302 | 1.0 | 14.0 | 0.00 | 0.00 | 0.00 | 8 | 1011.7 |
| 20260508235653 | 87 | 325 | 1.0 | 15.0 | 0.00 | 0.00 | 0.00 | 8 | 1011.0 |
| 20260508233708 | 89 | 115 | 5.0 | 9.0 | 0.00 | 0.00 | 0.00 | 8 | 1011.0 |
| 20260508232702 | 89 | 347 | 7.0 | 11.0 | 0.00 | 0.00 | 0.00 | 8 | 1011.0 |
| 20260508231658 | 88 | 82 | 4.0 | 14.0 | 0.00 | 0.00 | 0.00 | 8 | 1011.0 |
| 20260508225707 | 88 | 11 | 6.0 | 11.0 | 0.00 | 0.00 | 0.00 | 8 | 1011.2 |
| 20260508224704 | 88 | 360 | 2.0 | 13.0 | 0.00 | 0.00 | 0.00 | 8 | 1011.2 |
| 20260508223701 | 88 | 342 | 12.0 | 17.0 | 0.00 | 0.00 | 0.00 | 8 | 1011.2 |
| 20260508222650 | 88 | 320 | 12.0 | 18.0 | 0.00 | 0.00 | 0.00 | 8 | 1011.3 |
| 20260508220702 | 88 | 336 | 2.0 | 15.0 | 0.00 | 0.00 | 0.00 | 8 | 1011.4 |
| 20260508215656 | 88 | 301 | 5.0 | 15.0 | 0.00 | 0.00 | 0.00 | 8 | 1011.4 |
| 20260508214650 | 88 | 281 | 2.0 | 7.0 | 0.00 | 0.00 | 0.00 | 8 | 1011.6 |
| 20260508213708 | 88 | 206 | 3.0 | 12.0 | 0.00 | 0.00 | 0.00 | 9 | 1011.7 |
| 20260508212705 | 88 | 13 | 4.0 | 10.0 | 0.00 | 0.00 | 0.00 | 9 | 1011.8 |
| 20260508211655 | 88 | 15 | 4.0 | 14.0 | 0.00 | 0.00 | 0.00 | 9 | 1011.9 |
| 20260508210648 | 87 | 346 | 4.0 | 15.0 | 0.00 | 0.00 | 0.00 | 9 | 1012.1 |